Year,Month,Day,Hour,Minute,Value (Times are PST for temperature in C)
2018,02,22,00,00,-0.90
2018,02,22,00,01,-0.80
2018,02,22,00,02,-0.80
2018,02,22,00,03,-0.80
2018,02,22,00,04,-0.80
2018,02,22,00,05,-0.80
2018,02,22,00,06,-0.80
2018,02,22,00,07,-0.80
2018,02,22,00,08,-0.80
2018,02,22,00,09,-0.80
2018,02,22,00,10,-0.80
2018,02,22,00,11,-0.80
2018,02,22,00,12,-0.80
2018,02,22,00,13,-0.80
2018,02,22,00,14,-0.80
2018,02,22,00,15,-0.90
2018,02,22,00,16,-0.90
2018,02,22,00,17,-0.80
2018,02,22,00,18,-0.80
2018,02,22,00,19,-0.80
2018,02,22,00,20,-0.80
2018,02,22,00,21,-0.90
2018,02,22,00,22,-0.90
2018,02,22,00,23,-0.90
2018,02,22,00,24,-0.90
2018,02,22,00,25,-0.90
2018,02,22,00,26,-0.90
2018,02,22,00,27,-0.90
2018,02,22,00,28,-0.90
2018,02,22,00,29,-0.90
2018,02,22,00,30,-0.90
2018,02,22,00,31,-0.90
2018,02,22,00,32,-0.90
2018,02,22,00,33,-0.90
2018,02,22,00,34,-0.90
2018,02,22,00,35,-0.90
2018,02,22,00,36,-0.90
2018,02,22,00,37,-0.90
2018,02,22,00,38,-0.90
2018,02,22,00,39,-0.90
2018,02,22,00,40,-0.90
2018,02,22,00,41,-0.90
2018,02,22,00,42,-0.90
2018,02,22,00,43,-0.90
2018,02,22,00,44,-0.90
2018,02,22,00,45,-0.90
2018,02,22,00,46,-0.90
2018,02,22,00,47,-0.90
2018,02,22,00,48,-0.90
2018,02,22,00,49,-0.90
2018,02,22,00,50,-0.90
2018,02,22,00,51,-0.90
2018,02,22,00,52,-0.90
2018,02,22,00,53,-0.90
2018,02,22,00,54,-0.90
2018,02,22,00,55,-0.90
2018,02,22,00,56,-0.90
2018,02,22,00,57,-0.90
2018,02,22,00,58,-0.90
2018,02,22,00,59,-0.90
2018,02,22,01,00,-0.90
2018,02,22,01,01,-0.90
2018,02,22,01,02,-1.00
2018,02,22,01,03,-1.00
2018,02,22,01,04,-1.00
2018,02,22,01,05,-1.00
2018,02,22,01,06,-1.00
2018,02,22,01,07,-1.00
2018,02,22,01,08,-1.00
2018,02,22,01,09,-1.00
2018,02,22,01,10,-1.00
2018,02,22,01,11,-1.10
2018,02,22,01,12,-1.10
2018,02,22,01,13,-1.10
2018,02,22,01,14,-1.10
2018,02,22,01,15,-1.10
2018,02,22,01,16,-1.10
2018,02,22,01,17,-1.10
2018,02,22,01,18,-1.10
2018,02,22,01,19,-1.10
2018,02,22,01,20,-1.10
2018,02,22,01,21,-1.10
2018,02,22,01,22,-1.10
2018,02,22,01,23,-1.10
2018,02,22,01,24,-1.10
2018,02,22,01,25,-1.10
2018,02,22,01,26,-1.10
2018,02,22,01,27,-1.10
2018,02,22,01,28,-1.10
2018,02,22,01,29,-1.10
2018,02,22,01,30,-1.10
2018,02,22,01,31,-1.10
2018,02,22,01,32,-1.10
2018,02,22,01,33,-1.10
2018,02,22,01,34,-1.10
2018,02,22,01,35,-1.10
2018,02,22,01,36,-1.00
2018,02,22,01,37,-1.00
2018,02,22,01,38,-1.00
2018,02,22,01,39,-1.00
2018,02,22,01,40,-1.00
2018,02,22,01,41,-1.00
2018,02,22,01,42,-1.00
2018,02,22,01,43,-0.90
2018,02,22,01,44,-0.90
2018,02,22,01,45,-0.90
2018,02,22,01,46,-0.90
2018,02,22,01,47,-0.90
2018,02,22,01,48,-0.90
2018,02,22,01,49,-0.90
2018,02,22,01,50,-0.90
2018,02,22,01,51,-0.90
2018,02,22,01,52,-0.90
2018,02,22,01,53,-0.90
2018,02,22,01,54,-0.90
2018,02,22,01,55,-0.90
2018,02,22,01,56,-0.90
2018,02,22,01,57,-1.00
2018,02,22,01,58,-1.00
2018,02,22,01,59,-1.00
2018,02,22,02,00,-1.00
2018,02,22,02,01,-1.10
2018,02,22,02,02,-1.10
2018,02,22,02,03,-1.10
2018,02,22,02,04,-1.10
2018,02,22,02,05,-1.10
2018,02,22,02,06,-1.10
2018,02,22,02,07,-1.10
2018,02,22,02,08,-1.10
2018,02,22,02,09,-1.10
2018,02,22,02,10,-1.10
2018,02,22,02,11,-1.10
2018,02,22,02,12,-1.10
2018,02,22,02,13,-1.10
2018,02,22,02,14,-1.10
2018,02,22,02,15,-1.10
2018,02,22,02,16,-1.10
2018,02,22,02,17,-1.10
2018,02,22,02,18,-1.10
2018,02,22,02,19,-1.10
2018,02,22,02,20,-1.10
2018,02,22,02,21,-1.10
2018,02,22,02,22,-1.10
2018,02,22,02,23,-1.10
2018,02,22,02,24,-1.10
2018,02,22,02,25,-1.10
2018,02,22,02,26,-1.10
2018,02,22,02,27,-1.10
2018,02,22,02,28,-1.10
2018,02,22,02,29,-1.10
2018,02,22,02,30,-1.10
2018,02,22,02,31,-1.10
2018,02,22,02,32,-1.10
2018,02,22,02,33,-1.10
2018,02,22,02,34,-1.10
2018,02,22,02,35,-1.20
2018,02,22,02,36,-1.20
2018,02,22,02,37,-1.20
2018,02,22,02,38,-1.20
2018,02,22,02,39,-1.20
2018,02,22,02,40,-1.20
2018,02,22,02,41,-1.20
2018,02,22,02,42,-1.20
2018,02,22,02,43,-1.20
2018,02,22,02,44,-1.20
2018,02,22,02,45,-1.30
2018,02,22,02,46,-1.30
2018,02,22,02,47,-1.30
2018,02,22,02,48,-1.30
2018,02,22,02,49,-1.30
2018,02,22,02,50,-1.30
2018,02,22,02,51,-1.30
2018,02,22,02,52,-1.40
2018,02,22,02,53,-1.40
2018,02,22,02,54,-1.40
2018,02,22,02,55,-1.50
2018,02,22,02,56,-1.50
2018,02,22,02,57,-1.50
2018,02,22,02,58,-1.60
2018,02,22,02,59,-1.60
2018,02,22,03,00,-1.60
2018,02,22,03,01,-1.60
2018,02,22,03,02,-1.60
2018,02,22,03,03,-1.70
2018,02,22,03,04,-1.70
2018,02,22,03,05,-1.70
2018,02,22,03,06,-1.70
2018,02,22,03,07,-1.70
2018,02,22,03,08,-1.70
2018,02,22,03,09,-1.70
2018,02,22,03,10,-1.70
2018,02,22,03,11,-1.70
2018,02,22,03,12,-1.70
2018,02,22,03,13,-1.70
2018,02,22,03,14,-1.70
2018,02,22,03,15,-1.70
2018,02,22,03,16,-1.70
2018,02,22,03,17,-1.70
2018,02,22,03,18,-1.70
2018,02,22,03,19,-1.70
2018,02,22,03,20,-1.70
2018,02,22,03,21,-1.70
2018,02,22,03,22,-1.70
2018,02,22,03,23,-1.70
2018,02,22,03,24,-1.70
2018,02,22,03,25,-1.70
2018,02,22,03,26,-1.70
2018,02,22,03,27,-1.70
2018,02,22,03,28,-1.70
2018,02,22,03,29,-1.70
2018,02,22,03,30,-1.70
2018,02,22,03,31,-1.80
2018,02,22,03,32,-1.80
2018,02,22,03,33,-1.80
2018,02,22,03,34,-1.80
2018,02,22,03,35,-1.80
2018,02,22,03,36,-1.80
2018,02,22,03,37,-1.80
2018,02,22,03,38,-1.80
2018,02,22,03,39,-1.80
2018,02,22,03,40,-1.80
2018,02,22,03,41,-1.80
2018,02,22,03,42,-1.80
2018,02,22,03,43,-1.80
2018,02,22,03,44,-1.80
2018,02,22,03,45,-1.80
2018,02,22,03,46,-1.80
2018,02,22,03,47,-1.80
2018,02,22,03,48,-1.80
2018,02,22,03,49,-1.80
2018,02,22,03,50,-1.80
2018,02,22,03,51,-1.90
2018,02,22,03,52,-1.90
2018,02,22,03,53,-1.90
2018,02,22,03,54,-1.90
2018,02,22,03,55,-1.90
2018,02,22,03,56,-1.90
2018,02,22,03,57,-1.90
2018,02,22,03,58,-1.90
2018,02,22,03,59,-1.90
2018,02,22,04,00,-1.90
2018,02,22,04,01,-1.90
2018,02,22,04,02,-1.90
2018,02,22,04,03,-1.90
2018,02,22,04,04,-1.90
2018,02,22,04,05,-1.90
2018,02,22,04,06,-1.90
2018,02,22,04,07,-1.90
2018,02,22,04,08,-1.90
2018,02,22,04,09,-1.90
2018,02,22,04,10,-1.90
2018,02,22,04,11,-1.90
2018,02,22,04,12,-1.90
2018,02,22,04,13,-1.90
2018,02,22,04,14,-1.90
2018,02,22,04,15,-1.90
2018,02,22,04,16,-1.90
2018,02,22,04,17,-1.90
2018,02,22,04,18,-1.90
2018,02,22,04,19,-1.90
2018,02,22,04,20,-1.90
2018,02,22,04,21,-1.90
2018,02,22,04,22,-1.90
2018,02,22,04,23,-1.90
2018,02,22,04,24,-1.90
2018,02,22,04,25,-1.80
2018,02,22,04,26,-1.80
2018,02,22,04,27,-1.80
2018,02,22,04,28,-1.80
2018,02,22,04,29,-1.80
2018,02,22,04,30,-1.80
2018,02,22,04,31,-1.80
2018,02,22,04,32,-1.80
2018,02,22,04,33,-1.80
2018,02,22,04,34,-1.80
2018,02,22,04,35,-1.80
2018,02,22,04,36,-1.80
2018,02,22,04,37,-1.70
2018,02,22,04,38,-1.70
2018,02,22,04,39,-1.70
2018,02,22,04,40,-1.70
2018,02,22,04,41,-1.70
2018,02,22,04,42,-1.70
2018,02,22,04,43,-1.70
2018,02,22,04,44,-1.70
2018,02,22,04,45,-1.70
2018,02,22,04,46,-1.70
2018,02,22,04,47,-1.70
2018,02,22,04,48,-1.70
2018,02,22,04,49,-1.70
2018,02,22,04,50,-1.70
2018,02,22,04,51,-1.70
2018,02,22,04,52,-1.70
2018,02,22,04,53,-1.70
2018,02,22,04,54,-1.60
2018,02,22,04,55,-1.60
2018,02,22,04,56,-1.60
2018,02,22,04,57,-1.60
2018,02,22,04,58,-1.50
2018,02,22,04,59,-1.50
2018,02,22,05,00,-1.50
2018,02,22,05,01,-1.40
2018,02,22,05,02,-1.40
2018,02,22,05,03,-1.40
2018,02,22,05,04,-1.40
2018,02,22,05,05,-1.40
2018,02,22,05,06,-1.30
2018,02,22,05,07,-1.30
2018,02,22,05,08,-1.30
2018,02,22,05,09,-1.20
2018,02,22,05,10,-1.20
2018,02,22,05,11,-1.10
2018,02,22,05,12,-1.10
2018,02,22,05,13,-1.10
2018,02,22,05,14,-1.00
2018,02,22,05,15,-1.00
2018,02,22,05,16,-1.00
2018,02,22,05,17,-0.90
2018,02,22,05,18,-0.90
2018,02,22,05,19,-0.90
2018,02,22,05,20,-0.80
2018,02,22,05,21,-0.80
2018,02,22,05,22,-0.80
2018,02,22,05,23,-0.80
2018,02,22,05,24,-0.80
2018,02,22,05,25,-0.70
2018,02,22,05,26,-0.70
2018,02,22,05,27,-0.70
2018,02,22,05,28,-0.70
2018,02,22,05,29,-0.70
2018,02,22,05,30,-0.70
2018,02,22,05,31,-0.70
2018,02,22,05,32,-0.60
2018,02,22,05,33,-0.60
2018,02,22,05,34,-0.70
2018,02,22,05,35,-0.70
2018,02,22,05,36,-0.70
2018,02,22,05,37,-0.70
2018,02,22,05,38,-0.70
2018,02,22,05,39,-0.70
2018,02,22,05,40,-0.70
2018,02,22,05,41,-0.70
2018,02,22,05,42,-0.70
2018,02,22,05,43,-0.70
2018,02,22,09,24,0.60
2018,02,22,09,25,0.60
2018,02,22,09,26,0.60
2018,02,22,09,27,0.60
2018,02,22,09,28,0.70
2018,02,22,09,29,0.70
2018,02,22,09,30,0.70
2018,02,22,09,31,0.70
2018,02,22,09,32,0.70
2018,02,22,09,33,0.70
2018,02,22,09,34,0.80
2018,02,22,09,35,0.70
2018,02,22,09,36,0.80
2018,02,22,09,37,0.80
2018,02,22,09,38,0.80
2018,02,22,09,39,0.80
2018,02,22,09,40,0.80
2018,02,22,09,41,0.80
2018,02,22,09,42,0.80
2018,02,22,09,43,0.80
2018,02,22,09,44,0.80
2018,02,22,09,45,0.80
2018,02,22,09,46,0.70
2018,02,22,09,47,0.70
2018,02,22,09,48,0.80
2018,02,22,09,49,0.80
2018,02,22,09,50,0.70
2018,02,22,09,51,0.70
2018,02,22,09,52,0.70
2018,02,22,09,53,0.70
2018,02,22,09,54,0.70
2018,02,22,09,55,0.70
2018,02,22,09,56,0.70
2018,02,22,09,57,0.70
2018,02,22,09,58,0.70
2018,02,22,09,59,0.70
2018,02,22,10,00,0.70
2018,02,22,10,01,0.70
2018,02,22,10,02,0.70
2018,02,22,10,03,0.70
2018,02,22,10,04,0.80
2018,02,22,10,05,0.80
2018,02,22,10,06,0.90
2018,02,22,10,07,0.90
2018,02,22,10,08,1.00
2018,02,22,10,09,1.10
2018,02,22,10,10,1.10
2018,02,22,10,11,1.20
2018,02,22,10,12,1.30
2018,02,22,10,13,1.40
2018,02,22,10,14,1.40
2018,02,22,10,15,1.50
2018,02,22,10,16,1.60
2018,02,22,10,17,1.70
2018,02,22,10,18,1.70
2018,02,22,10,19,1.80
2018,02,22,10,20,1.80
2018,02,22,10,21,1.80
2018,02,22,10,22,1.90
2018,02,22,10,23,1.80
2018,02,22,10,24,1.80
2018,02,22,10,25,1.80
2018,02,22,10,26,1.80
2018,02,22,10,27,1.80
2018,02,22,10,28,1.70
2018,02,22,10,29,1.70
2018,02,22,10,30,1.70
2018,02,22,10,31,1.70
2018,02,22,10,32,1.70
2018,02,22,10,33,1.70
2018,02,22,10,34,1.60
2018,02,22,10,35,1.60
2018,02,22,10,36,1.60
2018,02,22,10,37,1.60
2018,02,22,10,38,1.50
2018,02,22,10,39,1.50
2018,02,22,10,40,1.60
2018,02,22,10,41,1.60
2018,02,22,10,42,1.60
2018,02,22,10,43,1.70
2018,02,22,10,44,1.70
2018,02,22,10,45,1.70
2018,02,22,10,46,1.80
2018,02,22,10,47,1.80
2018,02,22,10,48,1.80
2018,02,22,10,49,1.90
2018,02,22,10,50,1.90
2018,02,22,10,51,1.90
2018,02,22,10,52,1.90
2018,02,22,10,53,1.90
2018,02,22,10,54,2.00
2018,02,22,10,55,2.00
2018,02,22,10,56,2.00
2018,02,22,10,57,2.10
2018,02,22,10,58,2.10
2018,02,22,10,59,2.10
2018,02,22,11,00,2.10
2018,02,22,11,01,2.20
2018,02,22,11,02,2.20
2018,02,22,11,03,2.20
2018,02,22,11,04,2.20
2018,02,22,11,05,2.30
2018,02,22,11,06,2.40
2018,02,22,11,07,2.40
2018,02,22,11,08,2.40
2018,02,22,11,09,2.40
2018,02,22,11,10,2.40
2018,02,22,11,11,2.40
2018,02,22,11,12,2.40
2018,02,22,11,13,2.40
2018,02,22,11,14,2.40
2018,02,22,11,15,2.40
2018,02,22,11,16,2.40
2018,02,22,11,17,2.40
2018,02,22,11,18,2.40
2018,02,22,11,19,2.40
2018,02,22,11,20,2.50
2018,02,22,11,21,2.50
2018,02,22,11,22,2.50
2018,02,22,11,23,2.50
2018,02,22,11,24,2.50
2018,02,22,11,25,2.50
2018,02,22,11,26,2.60
2018,02,22,11,27,2.60
2018,02,22,11,28,2.70
2018,02,22,11,29,2.80
2018,02,22,11,30,2.80
2018,02,22,11,31,2.90
2018,02,22,11,32,2.90
2018,02,22,11,33,2.80
2018,02,22,11,34,2.80
2018,02,22,11,35,2.80
2018,02,22,11,36,2.80
2018,02,22,11,37,2.80
2018,02,22,11,38,2.80
2018,02,22,11,39,2.80
2018,02,22,11,40,2.80
2018,02,22,11,41,2.80
2018,02,22,11,42,2.70
2018,02,22,11,43,2.70
2018,02,22,11,44,2.70
2018,02,22,11,45,2.80
2018,02,22,11,46,2.80
2018,02,22,11,47,2.90
2018,02,22,11,48,3.00
2018,02,22,11,49,3.00
2018,02,22,11,50,3.00
2018,02,22,11,51,3.00
2018,02,22,11,52,3.00
2018,02,22,11,53,3.00
2018,02,22,11,54,2.90
2018,02,22,11,55,2.90
2018,02,22,11,56,2.90
2018,02,22,11,57,2.90
2018,02,22,11,58,2.80
2018,02,22,11,59,2.80
2018,02,22,12,00,2.80
2018,02,22,12,01,2.80
2018,02,22,12,02,2.80
2018,02,22,12,03,2.80
2018,02,22,12,04,2.90
2018,02,22,12,05,3.00
2018,02,22,12,06,3.00
2018,02,22,12,07,3.10
2018,02,22,12,08,3.10
2018,02,22,12,09,3.20
2018,02,22,12,10,3.10
2018,02,22,12,11,3.10
2018,02,22,12,12,3.10
2018,02,22,12,13,3.10
2018,02,22,12,14,3.10
2018,02,22,12,15,3.00
2018,02,22,12,16,3.00
2018,02,22,12,17,3.00
2018,02,22,12,18,3.00
2018,02,22,12,19,3.00
2018,02,22,12,20,2.90
2018,02,22,12,21,2.90
2018,02,22,12,22,2.90
2018,02,22,12,23,2.90
2018,02,22,12,24,2.80
2018,02,22,12,25,2.80
2018,02,22,12,26,2.80
2018,02,22,12,27,2.70
2018,02,22,12,28,2.70
2018,02,22,12,29,2.70
2018,02,22,12,30,2.70
2018,02,22,12,31,2.70
2018,02,22,12,32,2.70
2018,02,22,12,33,2.70
2018,02,22,12,34,2.70
2018,02,22,12,35,2.70
2018,02,22,12,36,2.70
2018,02,22,12,37,2.80
2018,02,22,12,38,2.80
2018,02,22,12,39,2.90
2018,02,22,12,40,2.90
2018,02,22,12,41,3.00
2018,02,22,12,42,3.00
2018,02,22,12,43,3.10
2018,02,22,12,44,3.20
2018,02,22,12,45,3.20
2018,02,22,12,46,3.20
2018,02,22,12,47,3.30
2018,02,22,12,48,3.30
2018,02,22,12,49,3.40
2018,02,22,12,50,3.40
2018,02,22,12,51,3.40
2018,02,22,12,52,3.50
2018,02,22,12,53,3.50
2018,02,22,12,54,3.50
2018,02,22,12,55,3.50
2018,02,22,12,56,3.50
2018,02,22,12,57,3.50
2018,02,22,12,58,3.50
2018,02,22,12,59,3.60
2018,02,22,13,00,3.60
2018,02,22,13,01,3.50
2018,02,22,13,02,3.50
2018,02,22,13,03,3.50
2018,02,22,13,04,3.50
2018,02,22,13,05,3.50
2018,02,22,13,06,3.60
2018,02,22,13,07,3.60
2018,02,22,13,08,3.60
2018,02,22,13,09,3.70
2018,02,22,13,10,3.70
2018,02,22,13,11,3.70
2018,02,22,13,12,3.70
2018,02,22,13,13,3.70
2018,02,22,13,14,3.60
2018,02,22,13,15,3.60
2018,02,22,13,16,3.60
2018,02,22,13,17,3.70
2018,02,22,13,18,3.70
2018,02,22,13,19,3.70
2018,02,22,13,20,3.70
2018,02,22,13,21,3.70
2018,02,22,13,22,3.70
2018,02,22,13,23,3.70
2018,02,22,13,24,3.70
2018,02,22,13,25,3.70
2018,02,22,13,26,3.70
2018,02,22,13,27,3.80
2018,02,22,13,28,3.80
2018,02,22,13,29,3.80
2018,02,22,13,30,3.80
2018,02,22,13,31,3.80
2018,02,22,13,32,3.80
2018,02,22,13,33,3.80
2018,02,22,13,34,3.80
2018,02,22,13,35,3.80
2018,02,22,13,36,3.80
2018,02,22,13,37,3.80
2018,02,22,13,38,3.80
2018,02,22,13,39,3.80
2018,02,22,13,40,3.80
2018,02,22,13,41,3.90
2018,02,22,13,42,3.90
2018,02,22,13,43,3.90
2018,02,22,13,44,3.90
2018,02,22,13,45,3.90
2018,02,22,13,46,3.90
2018,02,22,13,47,3.90
2018,02,22,13,48,3.90
2018,02,22,13,49,3.90
2018,02,22,13,50,3.90
2018,02,22,13,51,3.90
2018,02,22,13,52,3.90
2018,02,22,13,53,3.90
2018,02,22,13,54,3.80
2018,02,22,13,55,3.80
2018,02,22,13,56,3.80
2018,02,22,13,57,3.80
2018,02,22,13,58,3.80
2018,02,22,13,59,3.80
2018,02,22,14,00,3.80
2018,02,22,14,01,3.70
2018,02,22,14,02,3.70
2018,02,22,14,03,3.70
2018,02,22,14,04,3.70
2018,02,22,14,05,3.70
2018,02,22,14,06,3.70
2018,02,22,14,07,3.80
2018,02,22,14,08,3.80
2018,02,22,14,09,3.80
2018,02,22,14,10,3.90
2018,02,22,14,11,3.90
2018,02,22,14,12,3.90
2018,02,22,14,13,3.90
2018,02,22,14,14,3.90
2018,02,22,14,15,3.90
2018,02,22,14,16,4.00
2018,02,22,14,17,4.00
2018,02,22,14,18,4.10
2018,02,22,14,19,4.10
2018,02,22,14,20,4.10
2018,02,22,14,21,4.20
2018,02,22,14,22,4.20
2018,02,22,14,23,4.20
2018,02,22,14,24,4.20
2018,02,22,14,25,4.20
2018,02,22,14,26,4.20
2018,02,22,14,27,4.20
2018,02,22,14,28,4.20
2018,02,22,14,29,4.30
2018,02,22,14,30,4.30
2018,02,22,14,31,4.30
2018,02,22,14,32,4.30
2018,02,22,14,33,4.30
2018,02,22,14,34,4.20
2018,02,22,14,35,4.20
2018,02,22,14,36,4.20
2018,02,22,14,37,4.20
2018,02,22,14,38,4.20
2018,02,22,14,39,4.30
2018,02,22,14,40,4.30
2018,02,22,14,41,4.30
2018,02,22,14,42,4.30
2018,02,22,14,43,4.30
2018,02,22,14,44,4.30
2018,02,22,14,45,4.40
2018,02,22,14,46,4.30
2018,02,22,14,47,4.30
2018,02,22,14,48,4.30
2018,02,22,14,49,4.30
2018,02,22,14,50,4.30
2018,02,22,14,51,4.30
2018,02,22,14,52,4.30
2018,02,22,14,53,4.30
2018,02,22,14,54,4.30
2018,02,22,14,55,4.40
2018,02,22,14,56,4.40
2018,02,22,14,57,4.40
2018,02,22,14,58,4.40
2018,02,22,14,59,4.40
2018,02,22,15,00,4.40
2018,02,22,15,01,4.50
2018,02,22,15,02,4.50
2018,02,22,15,03,4.60
2018,02,22,15,04,4.60
2018,02,22,15,05,4.70
2018,02,22,15,06,4.70
2018,02,22,15,07,4.70
2018,02,22,15,08,4.70
2018,02,22,15,09,4.70
2018,02,22,15,10,4.70
2018,02,22,15,11,4.70
2018,02,22,15,12,4.70
2018,02,22,15,13,4.70
2018,02,22,15,14,4.70
2018,02,22,15,15,4.70
2018,02,22,15,16,4.70
2018,02,22,15,17,4.70
2018,02,22,15,18,4.80
2018,02,22,15,19,4.80
2018,02,22,15,20,4.90
2018,02,22,15,21,4.90
2018,02,22,15,22,4.90
2018,02,22,15,23,4.90
2018,02,22,15,24,4.90
2018,02,22,15,25,4.80
2018,02,22,15,26,4.80
2018,02,22,15,27,4.70
2018,02,22,15,28,4.60
2018,02,22,15,29,4.50
2018,02,22,15,30,4.50
2018,02,22,15,31,4.40
2018,02,22,15,32,4.40
2018,02,22,15,33,4.40
2018,02,22,15,34,4.30
2018,02,22,15,35,4.30
2018,02,22,15,36,4.30
2018,02,22,15,37,4.30
2018,02,22,15,38,4.30
2018,02,22,15,39,4.30
2018,02,22,15,40,4.30
2018,02,22,15,41,4.30
2018,02,22,15,42,4.30
2018,02,22,15,43,4.30
2018,02,22,15,44,4.20
2018,02,22,15,45,4.20
2018,02,22,15,46,4.20
2018,02,22,15,47,4.20
2018,02,22,15,48,4.20
2018,02,22,15,49,4.20
2018,02,22,15,50,4.20
2018,02,22,15,51,4.20
2018,02,22,15,52,4.20
2018,02,22,15,53,4.20
2018,02,22,15,54,4.20
2018,02,22,15,55,4.20
2018,02,22,15,56,4.20
2018,02,22,15,57,4.10
2018,02,22,15,58,4.10
2018,02,22,15,59,4.10
2018,02,22,16,00,4.10
2018,02,22,16,01,4.10
2018,02,22,16,02,4.10
2018,02,22,16,03,4.10
2018,02,22,16,04,4.10
2018,02,22,16,05,4.10
2018,02,22,16,06,4.10
2018,02,22,16,07,4.10
2018,02,22,16,08,4.20
2018,02,22,16,09,4.20
2018,02,22,16,10,4.20
2018,02,22,16,11,4.20
2018,02,22,16,12,4.20
2018,02,22,16,13,4.20
2018,02,22,16,14,4.10
2018,02,22,16,15,4.10
2018,02,22,16,16,4.10
2018,02,22,16,17,4.10
2018,02,22,16,18,4.10
2018,02,22,16,19,4.10
2018,02,22,16,20,4.10
2018,02,22,16,21,4.00
2018,02,22,16,22,4.00
2018,02,22,16,23,4.00
2018,02,22,16,24,3.90
2018,02,22,16,25,3.90
2018,02,22,16,26,3.90
2018,02,22,16,27,3.90
2018,02,22,16,28,3.90
2018,02,22,16,29,3.90
2018,02,22,16,30,3.90
2018,02,22,16,31,3.90
2018,02,22,16,32,3.90
2018,02,22,16,33,3.90
2018,02,22,16,34,3.90
2018,02,22,16,35,4.00
2018,02,22,16,36,4.00
2018,02,22,16,37,4.00
2018,02,22,16,38,4.10
2018,02,22,16,39,4.10
2018,02,22,16,40,4.10
2018,02,22,16,41,4.00
2018,02,22,16,42,4.00
2018,02,22,16,43,4.00
2018,02,22,16,44,4.00
2018,02,22,16,45,3.90
2018,02,22,16,46,4.00
2018,02,22,16,47,4.00
2018,02,22,16,48,3.90
2018,02,22,16,49,3.90
2018,02,22,16,50,3.90
2018,02,22,16,51,3.90
2018,02,22,16,52,3.90
2018,02,22,16,53,3.90
2018,02,22,16,54,3.90
2018,02,22,16,55,3.90
2018,02,22,16,56,3.80
2018,02,22,16,57,3.80
2018,02,22,16,58,3.80
2018,02,22,16,59,3.80
2018,02,22,17,00,3.80
2018,02,22,17,01,3.80
2018,02,22,17,02,3.80
2018,02,22,17,03,3.80
2018,02,22,17,04,3.80
2018,02,22,17,05,3.80
2018,02,22,17,06,3.80
2018,02,22,17,07,3.80
2018,02,22,17,08,3.80
2018,02,22,17,09,3.80
2018,02,22,17,10,3.80
2018,02,22,17,11,3.80
2018,02,22,17,12,3.80
2018,02,22,17,13,3.80
2018,02,22,17,14,3.80
2018,02,22,17,15,3.70
2018,02,22,17,16,3.70
2018,02,22,17,17,3.70
2018,02,22,17,18,3.70
2018,02,22,17,19,3.70
2018,02,22,17,20,3.70
2018,02,22,17,21,3.70
2018,02,22,17,22,3.60
2018,02,22,17,23,3.60
2018,02,22,17,24,3.60
2018,02,22,17,25,3.60
2018,02,22,17,26,3.50
2018,02,22,17,27,3.50
2018,02,22,17,28,3.40
2018,02,22,17,29,3.40
2018,02,22,17,30,3.30
2018,02,22,17,31,3.20
2018,02,22,17,32,3.20
2018,02,22,17,33,3.10
2018,02,22,17,34,3.00
2018,02,22,17,35,2.90
2018,02,22,17,36,2.80
2018,02,22,17,37,2.70
2018,02,22,17,38,2.60
2018,02,22,17,39,2.50
2018,02,22,17,40,2.40
2018,02,22,17,41,2.30
2018,02,22,17,42,2.20
2018,02,22,17,43,2.20
2018,02,22,17,44,2.10
2018,02,22,17,45,2.00
2018,02,22,17,46,1.90
2018,02,22,17,47,1.80
2018,02,22,17,48,1.80
2018,02,22,17,49,1.70
2018,02,22,17,50,1.70
2018,02,22,17,51,1.60
2018,02,22,17,52,1.60
2018,02,22,17,53,1.50
2018,02,22,17,54,1.40
2018,02,22,17,55,1.40
2018,02,22,17,56,1.30
2018,02,22,17,57,1.30
2018,02,22,17,58,1.20
2018,02,22,17,59,1.20
2018,02,22,18,00,1.10
2018,02,22,18,01,1.10
2018,02,22,18,02,1.00
2018,02,22,18,03,1.00
2018,02,22,18,04,0.90
2018,02,22,18,05,0.90
2018,02,22,18,06,0.90
2018,02,22,18,07,0.80
2018,02,22,18,08,0.80
2018,02,22,18,09,0.80
2018,02,22,18,10,0.80
2018,02,22,18,11,0.70
2018,02,22,18,12,0.70
2018,02,22,18,13,0.70
2018,02,22,18,14,0.60
2018,02,22,18,15,0.60
2018,02,22,18,16,0.60
2018,02,22,18,17,0.50
2018,02,22,18,18,0.50
2018,02,22,18,19,0.40
2018,02,22,18,20,0.40
2018,02,22,18,21,0.40
2018,02,22,18,22,0.40
2018,02,22,18,23,0.30
2018,02,22,18,24,0.30
2018,02,22,18,25,0.30
2018,02,22,18,26,0.20
2018,02,22,18,27,0.20
2018,02,22,18,28,0.20
2018,02,22,18,29,0.20
2018,02,22,18,30,0.20
2018,02,22,18,31,0.10
2018,02,22,18,32,0.10
2018,02,22,18,33,0.10
2018,02,22,18,34,0.10
2018,02,22,18,35,0.10
2018,02,22,18,36,0.10
2018,02,22,18,37,0.10
2018,02,22,18,38,0.10
2018,02,22,18,39,0.10
2018,02,22,18,40,0.00
2018,02,22,18,41,0.00
2018,02,22,18,42,0.00
2018,02,22,18,43,-0.10
2018,02,22,18,44,-0.10
2018,02,22,18,45,-0.10
2018,02,22,18,46,-0.10
2018,02,22,18,47,-0.20
2018,02,22,18,48,-0.20
2018,02,22,18,49,-0.20
2018,02,22,18,50,-0.20
2018,02,22,18,51,-0.20
2018,02,22,18,52,-0.20
2018,02,22,18,53,-0.20
2018,02,22,18,54,-0.20
2018,02,22,18,55,-0.20
2018,02,22,18,56,-0.20
2018,02,22,18,57,-0.10
2018,02,22,18,58,-0.10
2018,02,22,18,59,0.00
2018,02,22,19,00,0.00
2018,02,22,19,01,0.10
2018,02,22,19,02,0.10
2018,02,22,19,03,0.10
2018,02,22,19,04,0.10
2018,02,22,19,05,0.10
2018,02,22,19,06,0.10
2018,02,22,19,07,0.10
2018,02,22,19,08,0.10
2018,02,22,19,09,0.10
2018,02,22,19,10,0.10
2018,02,22,19,11,0.10
2018,02,22,19,12,0.10
2018,02,22,19,13,0.10
2018,02,22,19,14,0.10
2018,02,22,19,15,0.10
2018,02,22,19,16,0.10
2018,02,22,19,17,0.00
2018,02,22,19,18,0.00
2018,02,22,19,19,0.00
2018,02,22,19,20,0.00
2018,02,22,19,21,-0.10
2018,02,22,19,22,-0.10
2018,02,22,19,23,-0.10
2018,02,22,19,24,0.00
2018,02,22,19,25,0.00
2018,02,22,19,26,0.10
2018,02,22,19,27,0.10
2018,02,22,19,28,0.20
2018,02,22,19,29,0.20
2018,02,22,19,30,0.20
2018,02,22,19,31,0.20
2018,02,22,19,32,0.20
2018,02,22,19,33,0.20
2018,02,22,19,34,0.20
2018,02,22,19,35,0.20
2018,02,22,19,36,0.20
2018,02,22,19,37,0.10
2018,02,22,19,38,0.10
2018,02,22,19,39,0.10
2018,02,22,19,40,0.10
2018,02,22,19,41,0.00
2018,02,22,19,42,0.00
2018,02,22,19,43,0.00
2018,02,22,19,44,-0.10
2018,02,22,19,45,-0.10
2018,02,22,19,46,-0.20
2018,02,22,19,47,-0.20
2018,02,22,19,48,-0.20
2018,02,22,19,49,-0.30
2018,02,22,19,50,-0.30
2018,02,22,19,51,-0.30
2018,02,22,19,52,-0.30
2018,02,22,19,53,-0.30
2018,02,22,19,54,-0.30
2018,02,22,19,55,-0.30
2018,02,22,19,56,-0.40
2018,02,22,19,57,-0.40
2018,02,22,19,58,-0.40
2018,02,22,19,59,-0.50
2018,02,22,20,00,-0.60
2018,02,22,20,01,-0.60
2018,02,22,20,02,-0.70
2018,02,22,20,03,-0.70
2018,02,22,20,04,-0.80
2018,02,22,20,05,-0.80
2018,02,22,20,06,-0.80
2018,02,22,20,07,-0.90
2018,02,22,20,08,-0.90
2018,02,22,20,09,-0.90
2018,02,22,20,10,-1.00
2018,02,22,20,11,-1.00
2018,02,22,20,12,-1.00
2018,02,22,20,13,-1.10
2018,02,22,20,14,-1.10
2018,02,22,20,15,-1.10
2018,02,22,20,16,-1.10
2018,02,22,20,17,-1.10
2018,02,22,20,18,-1.10
2018,02,22,20,19,-1.10
2018,02,22,20,20,-1.20
2018,02,22,20,21,-1.20
2018,02,22,20,22,-1.30
2018,02,22,20,23,-1.30
2018,02,22,20,24,-1.30
2018,02,22,20,25,-1.40
2018,02,22,20,26,-1.40
2018,02,22,20,27,-1.50
2018,02,22,20,28,-1.50
2018,02,22,20,29,-1.50
2018,02,22,20,30,-1.60
2018,02,22,20,31,-1.60
2018,02,22,20,32,-1.70
2018,02,22,20,33,-1.70
2018,02,22,20,34,-1.70
2018,02,22,20,35,-1.70
2018,02,22,20,36,-1.80
2018,02,22,20,37,-1.80
2018,02,22,20,38,-1.80
2018,02,22,20,39,-1.80
2018,02,22,20,40,-1.80
2018,02,22,20,41,-1.90
2018,02,22,20,42,-1.90
2018,02,22,20,43,-1.90
2018,02,22,20,44,-1.90
2018,02,22,20,45,-1.90
2018,02,22,20,46,-1.90
2018,02,22,20,47,-1.90
2018,02,22,20,48,-2.00
2018,02,22,20,49,-1.90
2018,02,22,20,50,-1.90
2018,02,22,20,51,-1.90
2018,02,22,20,52,-1.90
2018,02,22,20,53,-1.90
2018,02,22,20,54,-1.90
2018,02,22,20,55,-2.00
2018,02,22,20,56,-2.00
2018,02,22,20,57,-2.10
2018,02,22,20,58,-2.10
2018,02,22,20,59,-2.10
2018,02,22,21,00,-2.10
2018,02,22,21,01,-2.10
2018,02,22,21,02,-2.20
2018,02,22,21,03,-2.20
2018,02,22,21,04,-2.20
2018,02,22,21,05,-2.10
2018,02,22,21,06,-2.10
2018,02,22,21,07,-2.10
2018,02,22,21,08,-2.10
2018,02,22,21,09,-2.10
2018,02,22,21,10,-2.10
2018,02,22,21,11,-2.10
2018,02,22,21,12,-2.20
2018,02,22,21,13,-2.20
2018,02,22,21,14,-2.20
2018,02,22,21,15,-2.20
2018,02,22,21,16,-2.20
2018,02,22,21,17,-2.20
2018,02,22,21,18,-2.30
2018,02,22,21,19,-2.30
2018,02,22,21,20,-2.30
2018,02,22,21,21,-2.30
2018,02,22,21,22,-2.40
2018,02,22,21,23,-2.40
2018,02,22,21,24,-2.40
2018,02,22,21,25,-2.40